User: anonymous   Login
Location: Oshawa
(43.9000°N, 78.8670°W)
Time: 11:56:02
(UTC-05:00)
Language:

Cosmos 1500 - Orbit

View from above orbital plane
View from above orbital plane
View from above satellite
View from above satellite

Ground track
Ground track

The orbit data is extracted from the following two-line orbital elements,

1 14372U 83099A   14332.09192735  .00006534  00000-0  37025-3 0  6956
2 14372 082.5170 182.3716 0019236 079.5902 036.1281 15.12678723696591
Epoch (UTC): 28 November 2014 02:12:22
Eccentricity: 0.0019236
inclination: 82.5170°
perigee height: 515 km
apogee height: 541 km
right ascension of ascending node: 182.3716°
argument of perigee: 79.5902°
revolutions per day: 15.12678723
mean anomaly at epoch: 36.1281°
orbit number at epoch: 69659

The dashed part of the orbit path shows where the satellite is in the earth's shadow,  

DLR